Home > Weather > Peterborough > Past weeks

Flag for Canada Weather for the Past 2 Weeks in Peterborough, Ontario, Canada

Now
12 °F

Passing clouds.


Feels Like: 0 °F
Forecast: 4 / 23 °F
Wind: 9 mph from Southwest

Location: Peterborough Airport

Current Time: Feb 12, 2016 at 5:56:36 AM

Latest Report: Feb 12, 2016 at 5:00 AM


Visibility: 9 mi

Pressure: 30.05 "Hg

Humidity: 79%

Dew point: 7 °F

Location of PeterboroughLocation

Historic Weather in Peterborough — Graph

°F

Peterborough Temperature Yesterday

Maximum temperature yesterday: 10 °F (at 12:00 AM)
Minimum temperature yesterday: -2 °F (at 6:59 AM)
Average temperature yesterday: 4 °F

High & Low Weather Summary for the Past Weeks

 TemperatureHumidityPressure
High54 °F (Feb 3, 4:00 PM)100% (Jan 28, 7:00 PM)30.38 "Hg (Jan 28, 7:00 PM)
Low-2 °F (Feb 11, 6:59 AM)51% (Feb 11, 3:00 PM)29.42 "Hg (Feb 1, 1:00 AM)
Average28 °F82%29.86 "Hg
* Reported Jan 28 4:00 AM — Feb 12 4:00 AM, Peterborough, Weather by CustomWeather, © 2016

Note: Actual official high and low records may vary slightly from our data, if they occured in-between our weather recording intervals... More about our weather records

Advertising

Peterborough Weather History for the Previous 24 Hours

 ConditionsComfort  
Time TempWeatherWind HumidityBarometerVisibility
4:00 AM
Fri, Feb 12
12 °FClear.9 mph79%30.06 "Hg9 mi
3:00 AM12 °FLight snow. Passing clouds.8 mph79%30.09 "Hg9 mi
2:01 AM3 °FLight snow. Overcast.5 mph92%30.13 "Hg9 mi
1:00 AM3 °FPassing clouds.3 mph85%30.16 "Hg9 mi
12:00 AM3 °FPassing clouds.5 mph85%30.19 "Hg9 mi
11:00 PM
Thu, Feb 11
1 °FClear.6 mph85%30.20 "Hg9 mi
10:00 PM1 °FClear.No wind85%30.20 "Hg9 mi
9:00 PM3 °FClear.3 mph78%30.20 "Hg9 mi
8:00 PM5 °FClear.8 mph72%30.19 "Hg9 mi
7:00 PM5 °FClear.10 mph66%30.18 "Hg9 mi
6:00 PM5 °FClear.13 mph60%30.16 "Hg9 mi
5:00 PM7 °FSunny.16 mph61%30.13 "Hg9 mi
4:00 PM9 °FSunny.18 mph51%30.11 "Hg9 mi
3:00 PM9 °FSunny.18 mph51%30.08 "Hg9 mi
2:00 PM7 °FSunny.18 mph56%30.07 "Hg9 mi
1:00 PM7 °FSunny.16 mph56%30.06 "Hg9 mi
12:00 PM3 °FSunny.15 mph60%30.06 "Hg9 mi
11:00 AM1 °FSunny.16 mph65%30.04 "Hg9 mi
10:00 AM1 °FPassing clouds.17 mph65%30.02 "Hg9 mi
9:00 AM0 °FPassing clouds.13 mph65%30.00 "Hg9 mi
8:01 AM-2 °FPartly sunny.14 mph71%29.97 "Hg9 mi
7:00 AM-2 °FClear.14 mph77%29.94 "Hg9 mi
6:59 AM-2 °FClear.15 mph77%29.94 "Hg9 mi
6:00 AM0 °FPassing clouds.15 mph78%29.91 "Hg9 mi
5:00 AM1 °FLight snow. Mostly cloudy.15 mph85%29.88 "Hg4 mi
Weather by CustomWeather, © 2016

See weather overviewHow to use our weather pages